Flag for U.S.A. Weather past 2 weeks in Rapid City, South Dakota, U.S.A.

Now
39 °F

Clear.


Feels Like: 35 °F
Forecast: 29 / 48 °F
Wind: 6 mph from Southeast

Location: Ellsworth Air Force Base

Current Time: Jan 29, 2015 at 5:40:24 PM

Latest Report: Jan 29, 2015 at 4:58 PM


Visibility: 10 mi

Pressure: 30.48 "Hg

Humidity: 36%

Dew point: 14 °F

Location of Rapid CityLocation

Historic Weather in Rapid City — Graph

°F

Rapid City temperature yesterday

Maximum temperature yesterday: 56 °F (at 12:58 PM)
Minimum temperature yesterday: 33 °F (at 9:58 PM)
Average temperature yesterday: 45 °F

Past Weeks' High & Low Weather Summary

 TemperatureHumidityPressure
High72 °F (Jan 27, 12:58 PM)93% (Jan 21, 8:55 AM)30.57 "Hg (Jan 21, 8:55 AM)
Low17 °F (Jan 22, 6:58 AM)17% (Jan 27, 12:58 PM)29.72 "Hg (Jan 24, 12:54 PM)
Average39 °F55%30.06 "Hg
* Reported Jan 14 3:58 PM — Jan 29 3:58 PM, Rapid City, Weather by CustomWeather, © 2014

Note: Actual official high and low records may vary slightly from our data, if they occured in-between our weather recording intervals... More about our weather records

Advertising

Rapid City weather history for previous 24 hours

 ConditionsComfort  
Time TempWeatherWind HumidityBarometerVisibility
3:58 PM
Jan 29
44 °FClear.5 mph30%30.46 "Hg10 mi
2:58 PM46 °FSunny.5 mph28%30.46 "Hg10 mi
1:58 PM45 °FSunny.5 mph28%30.47 "Hg10 mi
12:58 PM45 °FSunny.8 mph28%30.48 "Hg10 mi
11:58 AM44 °FSunny.13 mph31%30.51 "Hg10 mi
10:58 AM42 °FSunny.10 mph31%30.53 "Hg10 mi
9:58 AM39 °FSunny.8 mph33%30.56 "Hg10 mi
8:58 AM34 °FSunny.6 mph48%30.55 "Hg10 mi
7:58 AM21 °FSunny.3 mph86%30.57 "Hg10 mi
6:58 AM21 °FSunny.7 mph88%30.55 "Hg10 mi
5:58 AM28 °FClear.10 mph82%30.52 "Hg10 mi
4:58 AM29 °FClear.15 mph82%30.48 "Hg10 mi
4:03 AM32 °FClear.18 mph69%30.38 "Hg1 mi
2:58 AM33 °FPassing clouds.23 mph70%30.40 "Hg10 mi
1:58 AM33 °FOvercast.23 mph70%30.40 "Hg10 mi
12:58 AM33 °FOvercast.21 mph70%30.38 "Hg10 mi
11:58 PM
Jan 28
34 °FMostly cloudy.24 mph72%30.39 "Hg10 mi
10:58 PM34 °FOvercast.24 mph76%30.36 "Hg10 mi
9:58 PM33 °FPassing clouds.26 mph81%30.32 "Hg10 mi
8:58 PM33 °FClear.22 mph79%30.29 "Hg10 mi
7:58 PM35 °FPassing clouds.23 mph79%30.27 "Hg10 mi
6:58 PM36 °FPassing clouds.26 mph77%30.23 "Hg10 mi
5:58 PM37 °FClear.36 mph79%30.18 "Hg10 mi
Weather by CustomWeather, © 2014

See weather overviewHow to use our weather pages